Location: Newark
(44.3333°N, 7.6167°E)
Time: 02:18:24
(UTC+00:00)

CUBEBUG 2 - Visible Passes

Search period start: 22 January 2020 00:00
Search period end: 01 February 2020 00:00
Orbit: 585 x 699 km, 97.6° (Epoch: 21 January)

Date Brightness Start Highest point End Pass type
(mag) Time Alt. Az. Time Alt. Az. Time Alt. Az.
22 Jan ? 04:45:09 10° NNE 04:49:20 86° WNW 04:53:35 10° SSW visible
23 Jan ? 03:33:54 10° NE 03:36:33 16° E 03:39:12 10° SE visible
23 Jan ? 05:09:23 10° N 05:13:22 46° WNW 05:17:26 10° SW visible
24 Jan ? 03:57:10 10° NE 04:00:49 28° E 04:04:31 10° SSE visible
24 Jan ? 05:33:50 10° N 05:37:20 26° WNW 05:40:53 10° SW visible
25 Jan ? 04:20:54 10° NNE 04:25:00 52° E 04:29:11 10° S visible
25 Jan ? 05:58:41 10° NNW 06:01:13 16° WNW 06:03:46 10° W visible
25 Jan ? 16:58:43 10° SW 17:01:08 15° W 17:03:31 10° NW visible
26 Jan ? 04:44:54 10° NNE 04:49:07 85° WNW 04:53:25 10° SSW visible
27 Jan ? 03:33:36 10° NE 03:36:20 17° E 03:39:06 10° SE visible
27 Jan ? 05:09:07 10° N 05:13:09 46° WNW 05:17:16 10° SW visible
28 Jan ? 03:56:53 10° NE 04:00:36 29° E 04:04:23 10° SSE visible
28 Jan ? 05:33:34 10° N 05:37:07 26° WNW 05:40:43 10° SW visible
29 Jan ? 04:20:38 10° NNE 04:24:47 53° E 04:29:02 10° S visible
29 Jan ? 05:58:25 10° NNW 06:00:59 16° WNW 06:03:36 10° WSW visible
30 Jan ? 04:44:37 10° N 04:48:54 84° WNW 04:53:16 10° SSW visible
31 Jan ? 03:33:17 10° NE 03:36:07 17° E 03:39:01 10° SE visible
31 Jan ? 05:08:51 10° N 05:12:56 46° WNW 05:17:07 10° SW visible
